Location: ?astrovice
(49.6513°N, 14.9287°E)
Time: 13:48:47
(UTC+00:00)

STARLINK-1218 - Pass Details

Date: 09 April 2020
Orbit: 548 x 551 km, 53.0° (Epoch: 03 June)

Event Time Altitude Azimuth Distance (km) Brightness Sun altitude
Rises 18:13:37 0° 293° (WNW) 2,692 10.0 -5.3°
Reaches altitude 10° 18:15:51 10° 291° (WNW) 1,799 8.2 -5.6°
Maximum altitude 18:19:54 67° 208° (SSW) 585 3.8 -6.3°
Drops below altitude 10° 18:24:04 - 126° (SE) 1,843 5.7 -6.9°
Enters shadow 18:24:21 - 126° (SE) 1,951 5.8 -6.9°
